Weather History for Beckley, WV

Change the Weather History Date:

Thursday, December 22, 2011

  Actual Average Record
Temperature  
Mean Temperature 46 °F 33 °F  
Max Temperature 56 °F 41 °F 68 °F (2013)
Min Temperature 35 °F 25 °F -13 °F (1989)
Degree Days  
Heating Degree Days 19 32  
Month to date heating degree days 531 656  
Since 1 July heating degree days 1505 1796  
Cooling Degree Days 0 0  
Month to date cooling degree days 0 0  
Year to date cooling degree days 865 557  
Moisture  
Dew Point 42 °F    
Average Humidity 86    
Maximum Humidity 100    
Minimum Humidity 72    
Precipitation  
Precipitation 0.55 in 0.10 in 1.50 in (1981)
Month to date precipitation 3.40 2.15  
Year to date precipitation 41.54 40.34  
Snow  
Snow 0.00 in - - ()
Month to date snowfall 5.3  
Since 1 September snowfall 6.7  
Snow Depth 0.00 in    
Sea Level Pressure  
Sea Level Pressure 29.98 in    
Wind  
Wind Speed 5 mph (ESE)    
Max Wind Speed 25 mph    
Max Gust Speed 32 mph    
Visibility 5 miles    
Events Fog , Rain    
T = Trace of Precipitation, MM = Missing Value Source: NWS Daily Summary

Daily Weather History Graph

Daily Weather History Graph

Search for Another Location

Airport:

Trip Planner

Search our weather history database for the weather conditions in past years. The results will help you decide how hot, cold, wet, or windy it might be!

Date:

Astronomy

Dec. 22, 2011 Rise Set
Actual Time 7:36 AM EST 5:09 PM EST
Civil Twilight 7:07 AM EST 5:38 PM EST
Nautical Twilight 6:34 AM EST 6:11 PM EST
Astronomical Twilight 6:02 AM EST 6:43 PM EST
Moon 5:18 AM EST (12/22) 3:18 PM EST (12/22)
Length of Visible Light 10h 31m
Length of Day
9h 32m
Waning Crescent, 6% of the Moon is Illuminated
Dec 22
Waning Crescent
Dec 24
New
Jan 1
First Quarter
Jan 9
Full
Jan 16
Last Quarter

Hourly Weather History & Observations

Time (EST) Temp. Windchill Dew Point Humidity Pressure Visibility Wind Dir Wind Speed Gust Speed Precip Events Conditions
12:26 AM 42.8 °F - 39.2 °F 87% 30.02 in 10.0 mi Calm Calm - N/A   Mostly Cloudy
12:36 AM 42.8 °F - 39.2 °F 87% 30.02 in 10.0 mi Calm Calm - N/A   Scattered Clouds
12:51 AM 42.1 °F - 39.9 °F 92% 30.02 in 10.0 mi Calm Calm - N/A   Partly Cloudy
1:51 AM 39.0 °F - 37.0 °F 93% 30.03 in 10.0 mi Calm Calm - N/A   Clear
2:51 AM 39.0 °F - 37.9 °F 96% 30.04 in 8.0 mi Calm Calm - N/A   Clear
3:06 AM 37.4 °F - 37.4 °F 100% 30.02 in 1.8 mi Calm Calm - N/A   Clear
3:16 AM 37.4 °F - 35.6 °F 93% 30.03 in 3.0 mi Calm Calm - N/A   Clear
3:51 AM 37.0 °F 34.5 °F 35.1 °F 93% 30.04 in 7.0 mi South 3.5 mph - N/A   Clear
4:31 AM 37.4 °F - 35.6 °F 93% 30.04 in 2.0 mi Calm Calm - N/A   Clear
4:42 AM 37.4 °F 33.8 °F 35.6 °F 93% 30.04 in 6.0 mi SSE 4.6 mph - N/A   Clear
4:51 AM 36.0 °F 32.1 °F 35.1 °F 97% 30.06 in 2.5 mi South 4.6 mph - N/A   Clear
5:04 AM 39.2 °F - 35.6 °F 87% 30.05 in 4.0 mi Calm Calm - N/A   Clear
5:22 AM 37.4 °F 34.9 °F 35.6 °F 93% 30.06 in 2.0 mi SSE 3.5 mph - N/A   Clear
5:37 AM 39.2 °F - 37.4 °F 93% 30.07 in 4.0 mi Calm Calm - N/A   Clear
5:51 AM 37.0 °F 34.5 °F 35.1 °F 93% 30.09 in 2.5 mi SSE 3.5 mph - N/A   Clear
6:11 AM 37.4 °F 33.8 °F 35.6 °F 93% 30.07 in 3.0 mi SSE 4.6 mph - N/A   Clear
6:20 AM 37.4 °F - 35.6 °F 93% 30.08 in 1.2 mi Calm Calm - N/A   Clear
6:51 AM 37.0 °F - 36.0 °F 96% 30.11 in 0.5 mi Calm Calm - N/A Fog Fog
6:58 AM 37.4 °F - 35.6 °F 93% 30.10 in 0.5 mi Calm Calm - N/A Fog Fog
7:05 AM 35.6 °F - 35.6 °F 100% 30.10 in 0.2 mi Calm Calm - N/A Fog Fog
7:24 AM 35.6 °F - 35.6 °F 100% 30.10 in 1.2 mi Calm Calm - N/A   Mostly Cloudy
7:26 AM 35.6 °F - 35.6 °F 100% 30.10 in 3.0 mi Calm Calm - N/A   Mostly Cloudy
7:35 AM 37.4 °F - 35.6 °F 93% 30.09 in 5.0 mi Calm Calm - N/A   Scattered Clouds
7:40 AM 37.4 °F - 35.6 °F 93% 30.09 in 1.8 mi Calm Calm - N/A   Partly Cloudy
7:51 AM 37.0 °F 34.5 °F 35.1 °F 93% 30.10 in 1.8 mi East 3.5 mph - N/A   Clear
8:00 AM 35.6 °F 31.7 °F 35.6 °F 100% 30.10 in 2.5 mi SSW 4.6 mph - N/A   Clear
8:15 AM 37.4 °F 34.9 °F 35.6 °F 93% 30.10 in 1.8 mi SSE 3.5 mph - N/A   Clear
8:20 AM 37.4 °F 34.9 °F 35.6 °F 93% 30.09 in 3.0 mi ESE 3.5 mph - N/A   Clear
8:51 AM 37.9 °F 35.5 °F 37.0 °F 97% 30.09 in 4.0 mi ESE 3.5 mph - N/A   Clear
9:51 AM 44.1 °F 40.1 °F 41.0 °F 89% 30.09 in 10.0 mi SE 6.9 mph - N/A   Clear
10:51 AM 46.9 °F - 42.1 °F 83% 30.12 in 10.0 mi SSE 5.8 mph - N/A   Mostly Cloudy
11:51 AM 51.1 °F - 44.1 °F 77% 30.08 in 10.0 mi SE 5.8 mph - N/A   Partly Cloudy
12:51 PM 54.0 °F - 46.0 °F 75% 30.05 in 10.0 mi SSE 3.5 mph - N/A   Clear
1:24 PM 55.4 °F - 46.4 °F 72% 30.03 in 10.0 mi Variable 3.5 mph - N/A   Mostly Cloudy
1:51 PM 55.0 °F - 46.9 °F 74% 30.03 in 10.0 mi ESE 3.5 mph - N/A   Scattered Clouds
2:51 PM 55.0 °F - 46.9 °F 74% 30.00 in 10.0 mi SE 4.6 mph - N/A   Clear
3:51 PM 53.1 °F - 46.0 °F 77% 29.96 in 10.0 mi ESE 8.1 mph - N/A   Clear
4:51 PM 53.1 °F - 46.0 °F 77% 29.91 in 10.0 mi SE 12.7 mph - N/A   Overcast
5:51 PM 53.1 °F - 45.0 °F 74% 29.85 in 10.0 mi ESE 19.6 mph 25.3 mph 0.00 in Rain Light Rain
6:48 PM 51.8 °F - 46.4 °F 82% 29.89 in 10.0 mi NNW 11.5 mph 20.7 mph 0.00 in Rain Light Rain
6:51 PM 52.0 °F - 46.9 °F 83% 29.92 in 9.0 mi North 5.8 mph 20.7 mph 0.00 in Rain Light Rain
7:13 PM 51.8 °F - 48.2 °F 88% 29.92 in 3.0 mi North 4.6 mph - 0.10 in Rain Heavy Rain
7:25 PM 50.0 °F - 48.2 °F 94% 29.91 in 3.0 mi North 6.9 mph - 0.15 in Rain Rain
7:28 PM 50.0 °F - 48.2 °F 94% 29.92 in 4.0 mi North 5.8 mph - 0.16 in Rain Rain
7:51 PM 48.9 °F - 48.0 °F 97% 29.95 in 3.0 mi North 3.5 mph - 0.24 in Rain Rain
8:04 PM 48.2 °F - 46.4 °F 93% 29.89 in 2.5 mi East 8.1 mph - 0.07 in Rain Rain
8:13 PM 48.2 °F - 46.4 °F 93% 29.90 in 5.0 mi ENE 3.5 mph - 0.09 in Rain Rain
8:43 PM 48.2 °F - 46.4 °F 93% 29.89 in 5.0 mi Calm Calm - 0.18 in Rain Light Rain
8:47 PM 48.2 °F - 46.4 °F 93% 29.89 in 5.0 mi NW 4.6 mph - 0.18 in Rain Light Rain
8:51 PM 48.9 °F - 46.9 °F 93% 29.91 in 4.0 mi NW 8.1 mph - 0.19 in Rain Rain
8:57 PM 48.2 °F - 46.4 °F 93% 29.88 in 0.8 mi North 4.6 mph - N/A Rain Rain
9:01 PM 48.2 °F - 46.4 °F 93% 29.88 in 0.2 mi North 3.5 mph - 0.02 in Fog , Rain Rain
9:11 PM 48.2 °F - 46.4 °F 93% 29.87 in 0.2 mi Calm Calm - 0.05 in Fog , Rain Rain
9:20 PM 48.2 °F - 46.4 °F 93% 29.86 in 0.8 mi SE 3.5 mph - 0.07 in Rain Light Rain
9:25 PM 48.2 °F - 46.4 °F 93% 29.84 in 2.0 mi ESE 5.8 mph - 0.07 in Rain Light Rain
9:33 PM 48.2 °F - 46.4 °F 93% 29.83 in 9.0 mi SE 6.9 mph - 0.08 in Rain Light Rain
9:51 PM 48.9 °F - 48.0 °F 97% 29.84 in 10.0 mi South 3.5 mph - 0.08 in   Mostly Cloudy
10:23 PM 48.2 °F - 48.2 °F 100% 29.83 in 10.0 mi Calm Calm - N/A   Overcast
10:34 PM 48.2 °F - 46.4 °F 93% 29.84 in 1.5 mi WNW 11.5 mph - 0.00 in Rain Rain
10:42 PM 48.2 °F - 46.4 °F 93% 29.85 in 0.5 mi WNW 8.1 mph - 0.02 in Fog , Rain Light Rain
10:46 PM 48.2 °F - 46.4 °F 93% 29.86 in 1.0 mi WNW 6.9 mph - 0.02 in Rain Light Rain
10:51 PM 48.0 °F - 46.9 °F 96% 29.86 in 2.5 mi WNW 6.9 mph - 0.03 in Rain Light Rain
11:00 PM 48.2 °F - 46.4 °F 93% 29.87 in 4.0 mi WNW 9.2 mph - 0.00 in Rain Light Rain
11:11 PM 46.4 °F 38.7 °F 44.6 °F 93% 29.91 in 4.0 mi NW 20.7 mph 32.2 mph 0.00 in Rain Light Rain
11:20 PM 44.6 °F 37.8 °F 42.8 °F 93% 29.93 in 2.5 mi NW 15.0 mph 31.1 mph 0.00 in Rain Light Rain
11:30 PM 44.6 °F 37.4 °F 41.0 °F 87% 29.94 in 3.0 mi NNW 16.1 mph 25.3 mph 0.01 in Rain Light Rain
11:48 PM 42.8 °F 36.6 °F 41.0 °F 93% 29.95 in 10.0 mi NW 11.5 mph 18.4 mph 0.01 in Rain Light Rain
11:51 PM 43.0 °F 36.8 °F 39.9 °F 89% 29.97 in 10.0 mi NW 11.5 mph 18.4 mph 0.01 in Rain Light Rain